Preview of NWS' New Version of Forecast
This preview is not operational and should not be used for support decisions.
Latest weather observations around

Twenty-Nine Palms, Marine Corps Air-Ground Combat Center (KNXP)

Using English Units (Switch to International System of Units)
Date/ Time (PDT) Wind (mph) Vis. (mi) Weather Sky Cond. Temp (°F) Rel. Humidity Wind Chill (°F) Heat Index (°F) Pressure Precip. (in)
Air Dwpt 6 hour Altimeter (inHg) Sea level (inHg) 1 hr 3 hr 6 hr
Max Min
Sep 20 23:56 NW 5 10 Clear CLR 65 24     21%     29.98 29.88      
Sep 20 22:56 W 10 10 Clear CLR 71 24     17%   69 29.97 29.88      
Sep 20 21:56 W 13 10 Clear CLR 72 24     17%   70 29.97 29.87      
Sep 20 20:56 W 8 10 Clear CLR 73 25     17%   71 29.95 29.86      
Sep 20 19:56 NNW 5 10 Clear CLR 76 24     14%   74 29.93 29.84      
Sep 20 18:56 N 7 10 Clear CLR 79 24     13%   77 29.92 29.83      
Sep 20 17:56 NNE 8 10 Clear CLR 83 24     11%   80 29.92 29.83      
Sep 20 16:56 N 6 10 Clear   83 23     11%   80 29.93 29.84      
Sep 20 15:56 ENE 8 10 Clear CLR 84 24     11%   81 29.94 29.84      
Sep 20 14:56 NW 5 10 Clear   83 24     11%   80 29.95 29.85      
Sep 20 13:56 NNE 11 10 Clear CLR 82 28     14%   80 29.97 29.87      
Sep 20 12:56 NNE 10 10 Clear CLR 82 29     14%   80 29.99 29.89      
Sep 20 11:56 NNW 8 10 Clear CLR 80 31     17%   79 30 29.9      
Sep 20 10:56 N 11 10 Clear CLR 76 32     20%   74 30.02 29.93      
Sep 20 09:56 N 13 10 Clear CLR 75 32     21%   73 30.02 29.92      
Sep 20 08:56 WNW 14 10 Clear CLR 70 34     26%     30.01 29.92      
Sep 20 07:56 WNW 14 10 Clear CLR 66 34     30%     29.99 29.9      
Sep 20 06:56 NW 7 10 Clear CLR 62 35     36%     29.98 29.88      
Sep 20 05:56 NNW 6 10 Clear CLR 63 35     35%     29.96 29.86      
Sep 20 04:56 NNW 6 10 Clear CLR 63 36     37%     29.94 29.84      
Sep 20 03:56 NW 11 10 Clear CLR 64 35     34%     29.93 29.83      
Sep 20 02:56 NW 10 10 Clear CLR 65 35     33%     29.93 29.83      
Sep 20 01:56 NNW 11 10 Clear CLR 66 34     30%     29.92 29.82      
Sep 20 00:56 WNW 17 10 Clear CLR 67 38     34%     29.9 29.8      
Sep 19 23:56 NW 14 10 Clear CLR 67 38     34%     29.89 29.79      
Sep 19 22:56 NW 16 10 Clear CLR 70 36     29%     29.87 29.78      
Sep 19 21:56 N 10 10 Clear CLR 71 39     31%   69 29.84 29.74      
Sep 19 20:56 NW 16 10 Clear CLR 74 41     31%   72 29.83 29.73      
Sep 19 19:56 WNW 23 10 Clear and Windy CLR 77 44     31%   76 29.81 29.72      
Sep 19 18:56 WNW 15 10 Clear CLR 81 37     21%   80 29.8 29.7      
Sep 19 17:56 WNW 20 10 Clear and Windy CLR 84 36     18%   81 29.79 29.69      
Sep 19 16:56 5 10 Clear CLR 88 34     15%   84 29.79 29.69      
Sep 19 15:56 3 10 Clear CLR 88 21     9%   83 29.79 29.69      
Sep 19 14:56 Calm 10 Clear CLR 89 34     14%   85 29.81 29.7      
Sep 19 13:56 WNW 5 10 Clear CLR 86 37     18%   83 29.84 29.73      
Sep 19 12:56 NNW 8 10 Clear CLR 85 38     19%   82 29.86 29.76      
Sep 19 11:56 5 10 Clear CLR 83 40     22%   81 29.89 29.79      
Sep 19 10:56 NW 3 10 Clear CLR 80 41     25%   79 29.92 29.81      
Sep 19 09:56 N 8 10 Clear CLR 77 40     26%   76 29.93 29.82      
Sep 19 08:56 NW 9 10 Clear CLR 74 36     25%   72 29.93 29.83      
Sep 19 07:56 WNW 11 10 Clear CLR 69 34     27%     29.91 29.81      
Sep 19 06:56 WNW 8 10 Clear CLR 64 34     33%     29.9 29.8      
Sep 19 05:56 W 3 10 Clear CLR 64 33     31%     29.88 29.78      
Sep 19 04:56 W 13 10 Clear CLR 65 32     29%     29.88 29.78      
Sep 19 03:56 WNW 9 10 Clear CLR 67 32     27%     29.89 29.78      
Sep 19 02:56 W 10 10 Clear CLR 67 34     29%     29.9 29.79      
Sep 19 01:56 NW 9 10 Clear CLR 69 37     31%     29.9 29.79      
Sep 19 00:56 W 11 10 Clear CLR 72 39     30%   70 29.89 29.79      
Sep 18 23:56 W 11 10 Clear CLR 73 37     27%   71 29.9 29.79      
Sep 18 22:56 WNW 7 10 Clear CLR 75 35     23%   73 29.9 29.8      
Sep 18 21:56 W 13 10 Clear CLR 78 34     20%   77 29.89 29.79      
Sep 18 20:56 WSW 10 10 Clear CLR 79 33     19%   77 29.89 29.79      
Sep 18 19:56 SW 15 10 Clear CLR 81 33     18%   80 29.88 29.78      
Sep 18 18:56 SW 14 10 Clear CLR 84 28     13%   81 29.87 29.77      
Sep 18 17:56 WSW 17 10 Clear CLR 88 22     9%   84 29.87 29.77      
Sep 18 16:56 WSW 15 10 Clear CLR 91        %     29.88 29.77      
Sep 18 15:56 SSW 9 10 Clear CLR 91        %     29.88 29.78      
Sep 18 14:56 SE 5 10 Clear CLR 90 20     8%   85 29.91 29.8      
Sep 18 13:56 N 6 10 Clear CLR 90 21     8%   85 29.93 29.83      
Sep 18 12:56 3 10 Clear CLR 87 30     13%   83 29.96 29.85      
Sep 18 11:56 Calm 10 Clear CLR 85 31     14%   82 29.98 29.87      
Sep 18 10:56 Calm 10 Clear CLR 80 36     20%   79 29.99 29.89      
Sep 18 09:56 NNW 3 10 Clear CLR 76 40     27%   74 30 29.9      
Notice The following observation data may not be complete
Sep 18 08:56   10 Clear CLR          %              
Sep 18 06:56 NW 9 10 Clear CLR 61 40     46%     29.98 29.88      
Sep 18 05:56 WNW 8 10 Clear CLR 64 41     43%     29.97 29.86      
Sep 18 04:56 W 9 10 Clear CLR 64 40     41%     29.95 29.85      
Sep 18 03:56 W 11 10 Clear CLR 66 40     38%     29.96 29.86      
Sep 18 02:56 NW 8 10 Clear CLR 67 38     34%     29.96 29.86      
Sep 18 01:56 WNW 10 10 Clear CLR 69 39     33%     29.97 29.86      
Sep 18 00:56 W 13 10 Clear CLR 71 35     27%   69 29.96 29.86      
Sep 17 23:56 NNW 7 10 Clear CLR 70 30     23%     29.97 29.86      
Sep 17 22:56 NNW 5 10 Clear CLR 73 30     20%   71 29.96 29.86      
Sep 17 21:56 W 10 10 Clear CLR 75 32     21%   73 29.96 29.86      
May 15 05:56 WNW 10 10 Clear CLR 63 38     40%     29.99 29.89      
May 14 11:56 SE 5 10 Mostly Clear FEW020 78 33     19%   77 29.98 29.88      
May 14 02:56 WNW 10 10 Clear CLR 64 38     38%     29.95 29.85      
May 13 22:56   10 Clear CLR 69 36     30%     29.95 29.85      
May 13 20:56 WSW 15 10 Clear CLR 72        %     29.92 29.83      
Notice The following observation data may not be complete
May 13 15:56   10 Mostly Clear FEW020          %              
May 13 12:56 3 10 Mostly Clear FEW020 77 26     15%   75 29.97 29.88      
May 13 11:56 3 10 Clear CLR 76 27     16%   74 29.99 29.9      
May 13 02:56   10 Clear CLR 64 37     37%     29.93 29.84      
May 11 20:56 NW 13 10 Clear CLR 73 36     26%   71 29.73 29.63      
May 11 14:56 SW 21 10 Mostly Cloudy and Windy BKN280 89 24     9%   84 29.66 29.55      
May 11 10:56 WNW 5 10 Mostly Cloudy BKN250 82 31     16%   80 29.76 29.66      
Jun 12 02:56 N 13 10 Clear CLR 59 40     49%     29.95 29.86      
Jun 12 00:56 NW 13 10 Clear CLR 63 37     38%       29.84      
Jun 11 14:56 5 10 Clear   86 24     10%   82 29.79 29.69      
Jun 10 10:56 S 3 10 Clear CLR 81 32     17%   80 29.84 29.73      
Jun 08 21:56 WNW 10 10 Clear   81 21     11%   79 29.93 29.82      
Jun 08 20:56 NW 9 10 Clear   84 20     9%   81 29.92 29.8      
Jun 08 00:56 W 6 9 Clear CLR 76 26     16%   74   29.81      
Jun 07 22:56 6 10 Clear CLR 84 27     13%   81 29.93 29.81      
Jun 07 09:56 5 10 Clear CLR 87 33     15%   84 29.97 29.85      
Jun 06 07:56 NNW 6 10 Clear CLR 82        %     29.98 29.86      
Jun 06 03:56 NNW 6 10 Clear CLR 74        %     29.92 29.8      
Jun 06 01:56 W 15 10 Clear CLR 82 40     22%   80 29.91 29.79      
Jun 06 00:56 W 14 10 Clear CLR 83 39     21%   81 29.91 29.79      
Jun 05 15:56 SW 16 10 Clear CLR 102 26     7%   95 29.85 29.72